Regional Weather Roundup
Issued by NWS

Home | Current Version | Previous Version | Graphics & Text | Print | Product List | Glossary On
Versions: 1 2 3 4 5 6 7 8 9 10 11 12 13 14 15 16 17 18 19 20 21 22 23 24 25 26 27 28 29 30 31 32 33 34 35 36 37 38 39 40 41 42 43 44 45 46 47 48 49 50
000
ASUS43 KMPX 261210
RWRMN
WEATHER ROUNDUP FOR MINNESOTA
NATIONAL WEATHER SERVICE TWIN CITIES/CHANHASSEN MN
600 AM CST THU FEB 26 2015


NOTE: "FAIR" INDICATES FEW OR NO CLOUDS BELOW 12,000 FEET WITH NO
SIGNIFICANT WEATHER AND/OR OBSTRUCTIONS TO VISIBILITY. N/A MEANS
CURRENT SKY AND/OR WEATHER CONDITIONS ARE NOT AVAILABLE.

MNZ060>063-068>070-261300-
   Twin Cities Metro

CITY           SKY/WX    TMP DP  RH WIND       PRES   REMARKS
TWIN CITIES    CLEAR     -1 -12  59 N12       30.38R WCI -18
6HR MIN TEMP:  -2; 6HR MAX TEMP:   5;

ST PAUL        CLEAR     -2 -12  62 N13       30.40R WCI -20
CRYSTAL        CLEAR     -2 -12  62 NW9       30.38R WCI -18
BLAINE         CLEAR     -2 -11  65 NW8       30.37R WCI -17
LAKEVILLE      CLEAR     -6 -13  71 NW8       30.36R WCI -21
EDEN PRAIRIE   CLEAR     -2 -12  62 N9        30.37R WCI -18
6HR MIN TEMP:  -3; 6HR MAX TEMP:   5;

SOUTH ST PAUL  CLEAR     -1 -12  58 N7        30.38R WCI -14
LAKE ELMO      FAIR      -4 -11  71 NW7       30.37R WCI -18
$$
MNZ001>005-007-008-013>017-022>024-027-028-261300-
   Northwest Minnesota

CITY           SKY/WX    TMP DP  RH WIND       PRES   REMARKS
BEMIDJI        CLEAR    -22 -27  76 NW6       30.38R WCI -38
HALLOCK        CLEAR    -17 -24  70 NW5       30.51S WCI -29
ROSEAU         PTCLDY   -17 -24  70 W5        30.45S WCI -29
WARROAD        PTCLDY   -18 -24  76 W5        30.43S WCI -31
THIEF RVR FALL PTCLDY   -15 -26  58 NW7       30.45R WCI -31
CROOKSTON      CLEAR    -15 -20  76 NW7       30.52R WCI -31
FOSSTON        PTCLDY   -18 -24  76 NW6       30.43R WCI -33
DETROIT LAKES  CLEAR    -13 -17  84 NW5       30.42R WCI -25
MOORHEAD       CLEAR    -11 -17  77 NW8       30.51R WCI -28
PARK RAPIDS    FAIR     -16 -21  78 NW8       30.37R WCI -34
MAHNOMEN       FAIR     -16 -21  78 W5        30.44R WCI -28
$$
MNZ006-009>011-018-025>026-261300-
   North Central Minnesota

CITY           SKY/WX    TMP DP  RH WIND       PRES   REMARKS
BAUDETTE       PTCLDY   -18 -24  74 NW10      30.39R WCI -39
FLAG ISLAND    PTCLDY   -20 -26  76 NW7       30.42S WCI -37
INTL FALLS     PTCLDY   -30  52 100 W3        30.37R
6HR MIN TEMP: -30; 6HR MAX TEMP: -11;

WASKISH        PTCLDY   -18 -24  76 CALM      30.40R
BIG FORK       CLEAR    -17 -24  70 CALM      30.36R
LONGVILLE      CLEAR    -15 -18  84 NW5       30.37R WCI -27
GRAND RAPIDS   CLEAR    -15 -17  91 NW9       30.32S WCI -33
CRANE LAKE     CLEAR    -33 -38  75 CALM      30.38R
ORR            PTCLDY   -24 -29  76 CALM      30.30S
COOK           PTCLDY   -29 -36  68 CALM      30.33R
WALKER         FAIR     -17 -22  77 W3        30.38R
$$
MNZ012-019>021-037-261300-
   Northeast Minnesota

CITY           SKY/WX    TMP DP  RH WIND       PRES   REMARKS
DULUTH         CLEAR    -13 -19  75 NW6       30.29R WCI -27
6HR MIN TEMP: -13; 6HR MAX TEMP:  -3;

ELY            PTCLDY   -27 -35  68 CALM      30.29R
HIBBING        FAIR     -15 -21  74 N7        30.32R WCI -31
EVELETH        CLEAR    -15 -20  76 CALM      30.32R
DULUTH HARBOR  CLEAR     -2 -11  65 CALM      30.39R
TWO HARBORS    CLEAR     -8 -17  65 NW5       30.30R WCI -19
SILVER BAY     CLEAR    -17 -20  83 CALM      30.30R
GRAND MARAIS     N/A     -7 -16  65 NW12      30.36R WCI -26
G MARAIS ARPRT PTCLDY   -17 -24  70 NW3       30.20R
$$
MNZ029>031-032-039>041-046>048-054>057-064-261300-
   West Central Minnesota

CITY           SKY/WX    TMP DP  RH WIND       PRES   REMARKS
FERGUS FALLS   CLEAR    -11 -18  70 N8        30.51R WCI -28
WHEATON        CLEAR    -13 -18  77 NW8       30.51R WCI -30
MORRIS         FAIR      -9 -17  70 NW12      30.44S WCI -29
ALEXANDRIA     CLEAR    -13 -18  78 NW8       30.40R WCI -30
ELBOW LAKE     FAIR     -11 -16  79 NW8       30.45R WCI -27
WADENA         CLEAR    -15 -20  76 NW7       30.40R WCI -31
GLENWOOD       CLEAR    -11 -17  77 NW8       30.40R WCI -28
APPLETON       CLEAR     -8 -15  71 NW13      30.47R WCI -28
BENSON         FAIR     -11 -17  77 N7        30.44R WCI -26
ORTONVILLE     CLEAR     -9 -17  70 NW8       30.47R WCI -26
MADISON        CLEAR     -8 -13  77 NW10      30.47R WCI -26
WILLMAR        FAIR     -11 -17  77 NW6       30.42R WCI -25
$$
MNZ033>034-036-042>043-049>051-058-059-261300-
   Central Minnesota

CITY           SKY/WX    TMP DP  RH WIND       PRES   REMARKS
ST CLOUD       CLEAR     -7 -14  71 NW8       30.40R WCI -23
6HR MIN TEMP:  -7; 6HR MAX TEMP:   1;

SAUK CENTRE    FAIR     -10 -15  77 NW5       30.40R WCI -22
PAYNESVILLE    CLEAR    -10 -16  77 W6        30.40S WCI -24
AITKIN         CLEAR    -11 -18  70 NW3       30.35S
PINE RIVER     CLEAR    -15 -18  84 NW6       30.40R WCI -29
BRAINERD       CLEAR    -13 -19  75 NW5       30.38R WCI -25
STAPLES        CLEAR    -17 -22  76 NW5       30.39R WCI -29
LONG PRAIRIE   FAIR      -9 -17  70 NW7       30.40R WCI -24
LITTLE FALLS   CLEAR     -9 -17  70 NW3       30.41R
LITCHFIELD     CLEAR     -8 -11  84 CALM      30.40R
BUFFALO        CLEAR     -4 -11  71 NW8       30.40R WCI -19
MAPLE LAKE     CLEAR     -4 -10  76 NW6       30.40R WCI -16
$$
MNZ037-044-045-052-053-261300-
   East Central Minnesota

CITY           SKY/WX    TMP DP  RH WIND       PRES   REMARKS
PRINCETON      CLEAR     -9 -15  77 CALM      30.38R
MORA           CLEAR     -8 -17  65 NW8       30.39R WCI -23
CAMBRIDGE      CLEAR     -6 -15  65 NW5       30.37R WCI -17
RUSH CITY      MOCLDY    -7 -15  68 NW6       30.38R WCI -20
MOOSE LAKE     CLEAR     -9 -17  70 CALM      30.35R
HINCKLEY       FAIR      -8 -15  71 NW6       30.36S WCI -21
CLOQUET        CLEAR    -13 -18  77 NW7       30.32R WCI -29
MCGREGOR       CLEAR    -11 -17  77 NW3       30.36R
$$
MNZ071>073-080-081-089-090-097-098-261300-
   Southwest Minnesota

CITY           SKY/WX    TMP DP  RH WIND       PRES   REMARKS
MONTEVIDEO     CLEAR    -11 -17  77 N9        30.46R WCI -29
GRANITE FALLS  CLEAR    -11 -16  79 NW7       30.47R WCI -26
CANBY          CLEAR     -8 -13  77 NW10      30.46S WCI -26
MARSHALL       FAIR      -8 -15  71 N10       30.44R WCI -26
REDWOOD FALLS  CLEAR     -8 -13  78 NW9       30.43R WCI -25
OLIVIA         CLEAR     -9 -15  77 NW8       30.42S WCI -26
PIPESTONE      CLEAR     -8 -15  71 NW8       30.37R WCI -23
WINDOM         CLEAR     -8 -13  77 NW17      30.37R WCI -31
WORTHINGTON    CLEAR     21 -17  18 N16       30.36S WCI   7
JACKSON        CLOUDY    -6 -13  71 NW15G22   30.36R WCI -27
TRACY          CLEAR     -8 -12  79 NW12      30.40S HAZE    WCI -27
SLAYTON        CLEAR     -8 -14  75 NW12      30.37R WCI -28
$$
MNZ065>067-074>077-082>085-091>093-261300-
   South Central Minnesota

CITY           SKY/WX    TMP DP  RH WIND       PRES   REMARKS
MANKATO        CLEAR     -6 -15  65 NW9       30.37R WCI -22
NEW ULM        CLEAR     -9 -15  77 NW14      30.39R WCI -31
ST JAMES       CLEAR     -8 -15  71 NW12      30.40R WCI -27
FAIRMONT       CLEAR     -6 -11  77 NW13      30.35R WCI -25
GLENCOE        CLEAR     -5 -11  77 NW7       30.39R WCI -19
FARIBAULT      CLEAR     -8 -15  71 NW3       30.35R
OWATONNA       CLEAR     -9 -17  70 CALM      30.33R
WASECA         CLEAR     -9 -15  77 NW10      30.36R WCI -28
ALBERT LEA     CLEAR     -6 -13  71 N7        30.31R WCI -20
$$
MNZ078>079-086>088-094>096-261300-
   Southeast Minnesota

CITY           SKY/WX    TMP DP  RH WIND       PRES   REMARKS
ROCHESTER      CLEAR     -5 -14  65 N13       30.28R WCI -24
6HR MIN TEMP:  -5; 6HR MAX TEMP:   2;

RED WING       CLEAR     -2 -15  55 N5        30.36R WCI -12
STANTON        CLEAR     -4 -14  63 N7        30.35R WCI -18
DODGE CENTER   PTCLDY    -8 -15  71 N8        30.29R WCI -23
WINONA         CLEAR     -4  -9  77 CALM      30.35R
AUSTIN         CLEAR     -6 -13  71 N8        30.30R WCI -21
PRESTON        CLEAR     -5 -13  67 N8        30.27R WCI -20
$$
ABBREVIATIONS USED IN REMARKS
   TC - TEMPERATURES IN CELSIUS
  WCI - WIND CHILL INDEX
   HX - HEAT INDEX
  VSB - VISIBILITY
$$



USA.gov is the U.S. government's official web portal to all federal, state and local government web resources and services.